Saipan, MP

4:59 AM ChST on March 31, 2017 (GMT +1000)
Saipan International

Weather History for PGSN - September, 2013

Change the Weather History Date:

Saturday, September 21, 2013

  Actual Average Record
Temperature  
Mean Temperature 77 °F -  
Max Temperature 81 °F 84 °F 89 °F (2016)
Min Temperature 73 °F 76 °F 73 °F (2001)
Cooling Degree Days 12    
Growing Degree Days 27 (Base 50)    
Moisture  
Dew Point 77 °F    
Average Humidity 95    
Maximum Humidity 100    
Minimum Humidity 83    
Precipitation  
Precipitation 1.25 in - - ()
Sea Level Pressure  
Sea Level Pressure 29.52 in    
Wind  
Wind Speed 13 mph (SW)    
Max Wind Speed 33 mph    
Max Gust Speed 44 mph    
Visibility 6 miles    
Events Fog , Rain    
Averages and records for this station are not official NWS values.
T = Trace of Precipitation, MM = Missing Value Source: NWS Daily Summary

Daily Weather History Graph

Daily Weather History Graph

Search for Another Location

Airport or City:

Trip Planner

Search our weather history database for the weather conditions in past years. The results will help you decide how hot, cold, wet, or windy it might be!

Date:

Astronomy

Sep. 21, 2013 Rise Set
Actual Time 6:06 AM ChST 6:14 PM ChST
Civil Twilight 5:44 AM ChST 6:35 PM ChST
Nautical Twilight 5:19 AM ChST 7:00 PM ChST
Astronomical Twilight 4:54 AM ChST 7:25 PM ChST
Moon 7:26 PM ChST (9/21) 7:21 AM ChST (9/21)
Length of Visible Light 12h 51m
Length of Day
12h 08m
Full, 97% of the Moon is Illuminated
Sep 21
Full
Sep 27
Last Quarter
Oct 5
New
Oct 12
First Quarter
Oct 19
Full

Hourly Weather History & Observations

Time (ChST) Temp. Heat Index Dew Point Humidity Pressure Visibility Wind Dir Wind Speed Gust Speed Precip Events Conditions
12:54 AM 78.1 °F - 77.0 °F 96% 29.55 in 10.0 mi ESE 4.6 mph - 0.00 in Rain Light Rain
1:54 AM 77.0 °F - 77.0 °F 100% 29.53 in 10.0 mi SSE 11.5 mph 20.7 mph 0.00 in   Overcast
2:09 AM 77.0 °F - 75.2 °F 94% 29.46 in 10.0 mi SSE 10.4 mph - N/A   Scattered Clouds
2:52 AM 78.8 °F - 77.0 °F 94% 29.45 in 10.0 mi SSE 10.4 mph - N/A   Mostly Cloudy
2:54 AM 78.1 °F - 77.0 °F 96% 29.51 in 10.0 mi SSE 11.5 mph - N/A   Mostly Cloudy
3:34 AM 77.0 °F - 77.0 °F 100% 29.44 in 10.0 mi West 5.8 mph - 0.02 in   Overcast
3:54 AM 77.0 °F - 77.0 °F 100% 29.50 in 10.0 mi Calm Calm - 0.02 in   Overcast
4:24 AM 77.0 °F - 75.2 °F 94% 29.44 in 10.0 mi WSW 3.5 mph - N/A   Overcast
4:54 AM 75.9 °F - 75.9 °F 100% 29.51 in 10.0 mi SW 4.6 mph - N/A   Partly Cloudy
5:11 AM 77.0 °F - 75.2 °F 94% 29.44 in 10.0 mi SSW 9.2 mph - N/A   Mostly Cloudy
5:54 AM 77.0 °F - 77.0 °F 100% 29.52 in 10.0 mi SSW 9.2 mph - N/A   Overcast
6:01 AM 77.0 °F - 77.0 °F 100% 29.46 in 10.0 mi SSW 8.1 mph - N/A   Overcast
6:54 AM 78.1 °F - 78.1 °F 100% 29.52 in 10.0 mi SSW 10.4 mph - 0.00 in   Overcast
7:07 AM 78.8 °F - 78.8 °F 100% 29.47 in 2.0 mi SSW 15.0 mph 19.6 mph 0.00 in Rain Light Rain
7:45 AM 78.8 °F - 78.8 °F 100% 29.47 in 8.0 mi SSW 5.8 mph - 0.03 in   Overcast
7:54 AM 78.1 °F - 78.1 °F 100% 29.53 in 10.0 mi SSW 5.8 mph - 0.03 in   Mostly Cloudy
8:24 AM 78.8 °F - 78.8 °F 100% 29.48 in 2.5 mi West 8.1 mph - 0.00 in Rain Light Rain
8:32 AM 78.8 °F - 78.8 °F 100% 29.48 in 4.0 mi West 9.2 mph - 0.02 in Rain Light Rain
8:54 AM 78.1 °F - 78.1 °F 100% 29.54 in 10.0 mi West 8.1 mph - 0.02 in Rain Light Rain
9:54 AM 80.1 °F 86.4 °F 78.1 °F 94% 29.54 in 10.0 mi West 10.4 mph - N/A   Overcast
10:19 AM 80.6 °F 88.1 °F 78.8 °F 94% 29.47 in 1.5 mi West 16.1 mph 24.2 mph 0.01 in Rain Heavy Rain
10:21 AM 78.8 °F - 78.8 °F 100% 29.46 in 0.8 mi West 13.8 mph 24.2 mph 0.04 in Rain Heavy Rain
10:31 AM 78.8 °F - 78.8 °F 100% 29.46 in 1.2 mi West 17.3 mph 28.8 mph 0.25 in Rain Heavy Rain
10:38 AM 78.8 °F - 78.8 °F 100% 29.46 in 6.0 mi West 18.4 mph 26.5 mph 0.26 in Rain Light Rain
10:54 AM 80.1 °F 86.7 °F 79.0 °F 96% 29.52 in 6.0 mi West 24.2 mph 29.9 mph 0.26 in Rain Light Rain
11:54 AM 79.0 °F - 75.9 °F 90% 29.52 in 9.0 mi WSW 33.4 mph 43.7 mph 0.00 in   Overcast
12:08 PM 77.0 °F - 75.2 °F 94% 29.45 in 2.0 mi WSW 31.1 mph 43.7 mph 0.00 in Rain Light Rain
12:14 PM 75.2 °F - 75.2 °F 100% 29.47 in 2.0 mi SW 31.1 mph 43.7 mph 0.00 in Rain Light Rain
12:54 PM 73.9 °F - 72.0 °F 93% 29.53 in 10.0 mi SW 21.9 mph 34.5 mph 0.07 in   Overcast
1:45 PM 78.8 °F - 73.4 °F 83% 29.49 in 2.0 mi WSW 16.1 mph 27.6 mph 0.00 in Rain Light Rain
1:52 PM 75.2 °F - 73.4 °F 94% 29.49 in 0.8 mi West 19.6 mph 36.8 mph 0.22 in Rain Rain
1:54 PM 75.9 °F - 75.0 °F 97% 29.55 in 0.8 mi West 21.9 mph 36.8 mph 0.25 in Rain Rain
1:56 PM 75.2 °F - 75.2 °F 100% 29.49 in 0.5 mi West 24.2 mph 36.8 mph 0.03 in Fog , Rain Rain
1:58 PM 75.2 °F - 73.4 °F 94% 29.49 in 1.0 mi West 21.9 mph 31.1 mph 0.03 in Rain Rain
2:02 PM 75.2 °F - 73.4 °F 94% 29.48 in 2.0 mi West 15.0 mph 31.1 mph 0.04 in Rain Rain
2:10 PM 75.2 °F - 75.2 °F 100% 29.50 in 1.0 mi WSW 21.9 mph 32.2 mph 0.08 in Rain Rain
2:14 PM 77.0 °F - 75.2 °F 94% 29.49 in 0.5 mi SW 18.4 mph 32.2 mph 0.18 in Fog , Rain Rain
2:24 PM 77.0 °F - 75.2 °F 94% 29.49 in 1.0 mi SSW 21.9 mph 29.9 mph 0.42 in Rain Rain
2:27 PM 78.8 °F - 78.8 °F 100% 29.49 in 2.0 mi SSW 23.0 mph 32.2 mph 0.43 in Rain Rain
2:35 PM 78.8 °F - 77.0 °F 94% 29.49 in 1.5 mi SSW 29.9 mph 42.6 mph 0.44 in Rain Rain
2:54 PM 78.1 °F - 77.0 °F 96% 29.56 in 2.0 mi SSW 23.0 mph 33.4 mph 0.48 in Rain Heavy Rain
3:35 PM 78.8 °F - 75.2 °F 89% 29.49 in 9.0 mi SSW 19.6 mph 36.8 mph 0.07 in Rain Light Rain
3:54 PM 79.0 °F - 75.9 °F 90% 29.57 in 8.0 mi SSW 24.2 mph 34.5 mph 0.08 in Rain Light Rain
4:54 PM 80.1 °F 85.8 °F 77.0 °F 90% 29.58 in 6.0 mi SW 16.1 mph 28.8 mph 0.01 in Rain Rain
5:01 PM 80.6 °F 87.1 °F 77.0 °F 89% 29.52 in 10.0 mi SSW 13.8 mph 27.6 mph 0.00 in Rain Rain
5:54 PM 81.0 °F 87.9 °F 77.0 °F 88% 29.61 in 10.0 mi SSW 19.6 mph 25.3 mph 0.00 in Rain Light Rain
6:10 PM 80.6 °F 88.1 °F 78.8 °F 94% 29.55 in 10.0 mi SSW 15.0 mph 24.2 mph 0.00 in Rain Light Rain
6:54 PM 81.0 °F 87.9 °F 77.0 °F 88% 29.63 in 10.0 mi SSW 19.6 mph 28.8 mph 0.00 in Rain Light Rain
7:15 PM 80.6 °F 87.1 °F 77.0 °F 89% 29.58 in 10.0 mi SSW 19.6 mph 29.9 mph 0.00 in Rain Light Rain
7:54 PM 81.0 °F 87.9 °F 77.0 °F 88% 29.64 in 10.0 mi SSW 18.4 mph 28.8 mph 0.00 in Rain Light Rain
8:54 PM 81.0 °F 87.9 °F 77.0 °F 88% 29.66 in 10.0 mi SSW 17.3 mph 24.2 mph 0.00 in Rain Light Rain
9:54 PM 80.1 °F 85.8 °F 77.0 °F 90% 29.68 in 10.0 mi SSW 12.7 mph - 0.01 in Rain Light Rain
10:54 PM 81.0 °F 87.9 °F 77.0 °F 88% 29.65 in 10.0 mi SSW 16.1 mph 24.2 mph 0.00 in Rain Light Rain
11:54 PM 80.1 °F 86.4 °F 78.1 °F 94% 29.65 in 10.0 mi SSW 15.0 mph - 0.02 in Rain Light Rain